Gulf Bridge — A8JM5 — position and weather

sailwx.info

Track history (hours):
 
Tides and Currents Weather Stations Pressure Air Temp Water Temp Dewpoint Dewpoint Depression Visibility Wind Speed Wind Dir Waves Ship Positions

Gulf Bridge

Last reported at 2014-Sep-20 11:26 UTC. Time now 2014-Sep-20 22:06 UTC.
Position S 36°32' E 175°53'.

Length 213 m; beam 32.2 m; draft 11.5 m.

Type: Cargo ship. MMSI: 636091115.

Date/timePositionNaut miles runAvg speedWind from/ knotsBaromVisibWave heightAir tempDewpointWater temp
2014-Sep-20 11:26S 36°32' E 175°53'1814.5
2014-Sep-20 10:14S 36°27' E 175°32'1014.6
2014-Sep-20 09:33S 36°24' E 175°21'1212.1
2014-Sep-20 08:33S 36°31' E 175°08'1211.7
2014-Sep-20 07:33S 36°38' E 174°57'1111.4
2014-Sep-20 06:33S 36°47' E 174°48'4 3.3
2014-Sep-20 05:28S 36°51' E 174°47'0 0.0
2014-Sep-20 04:29S 36°51' E 174°47'0 0.0
2014-Sep-20 03:22S 36°51' E 174°47'0 0.0
2014-Sep-20 02:23S 36°51' E 174°47'0 0.0
2014-Sep-20 01:28S 36°51' E 174°47'0 0.0
2014-Sep-20 00:29S 36°51' E 174°47'0 0.0
2014-Sep-19 23:29S 36°51' E 174°47'0 0.0
2014-Sep-19 22:28S 36°51' E 174°47'0 0.0
2014-Sep-19 21:32S 36°51' E 174°47'0 0.0
2014-Sep-19 20:32S 36°51' E 174°47'0 0.0
2014-Sep-19 19:29S 36°51' E 174°47'0 0.0
2014-Sep-19 18:28S 36°51' E 174°47'0 0.0
2014-Sep-19 17:23S 36°51' E 174°47'0 0.0
2014-Sep-19 16:32S 36°51' E 174°47'0 0.0
2014-Sep-19 15:32S 36°51' E 174°47'0 0.0
2014-Sep-19 14:32S 36°51' E 174°47'1 0.5
2014-Sep-19 13:33S 36°50' E 174°48'6 6.3
2014-Sep-19 12:33S 36°44' E 174°50'10 9.6
2014-Sep-19 11:33S 36°37' E 174°58'8 7.7
2014-Sep-19 10:33S 36°31' E 175°04'1 0.9
2014-Sep-19 09:33S 36°31' E 175°03'1 0.9
2014-Sep-19 08:33S 36°31' E 175°02'6 5.8
2014-Sep-19 07:33S 36°25' E 175°01'1010.1
2014-Sep-19 06:33S 36°15' E 174°59'  
2014-Sep-13 01:33S 39°20' E 147°33'1313.4
2014-Sep-13 00:34S 39°19' E 147°16'1413.9
2014-Sep-12 23:33S 39°18' E 146°58'1414.2
2014-Sep-12 22:33S 39°17' E 146°40'1414.4
2014-Sep-12 21:33S 39°17' E 146°21'1414.0
2014-Sep-12 20:33S 39°12' E 146°04'1414.4
2014-Sep-12 19:33S 39°04' E 145°49'1414.3
2014-Sep-12 18:33S 38°56' E 145°33'2114.2
2014-Sep-12 17:05S 38°45' E 145°11'1014.2
2014-Sep-12 16:24S 38°39' E 145°01'30 0.8
2014-Sep-11 02:33S 38°54' E 145°34'1312.7
2014-Sep-11 01:34S 38°60' E 145°49'1111.3
2014-Sep-11 00:34S 39°05' E 146°02'1212.0
2014-Sep-10 23:34S 39°10' E 146°15'1413.7
2014-Sep-10 22:33S 39°08' E 146°33'1514.9
2014-Sep-10 21:34S 39°03' E 146°51'1414.3
2014-Sep-10 20:34S 38°58' E 147°08'1413.9
2014-Sep-10 19:33S 38°54' E 147°25'5513.7
2014-Sep-10 15:33S 38°36' E 148°32'1514.8
2014-Sep-10 14:34S 38°28' E 148°48'1514.8
2014-Sep-10 13:31S 38°19' E 149°03'  
Track history (hours):
 
Tides and Currents Weather Stations Pressure Air Temp Water Temp Dewpoint Dewpoint Depression Visibility Wind Speed Wind Dir Waves Ship Positions

Gulf Bridge

Last reported at 2014-Sep-20 11:26 UTC. Time now 2014-Sep-20 22:06 UTC.
Position S 36°32' E 175°53'.

Length 213 m; beam 32.2 m; draft 11.5 m.

Type: Cargo ship. MMSI: 636091115.

Date/timePositionNaut miles runAvg speedWind from/ knotsBaromVisibWave heightAir tempDewpointWater temp
2014-Sep-20 11:26S 36°32' E 175°53'1814.5
2014-Sep-20 10:14S 36°27' E 175°32'1014.6
2014-Sep-20 09:33S 36°24' E 175°21'1212.1
2014-Sep-20 08:33S 36°31' E 175°08'1211.7
2014-Sep-20 07:33S 36°38' E 174°57'1111.4
2014-Sep-20 06:33S 36°47' E 174°48'4 3.3
2014-Sep-20 05:28S 36°51' E 174°47'0 0.0
2014-Sep-20 04:29S 36°51' E 174°47'0 0.0
2014-Sep-20 03:22S 36°51' E 174°47'0 0.0
2014-Sep-20 02:23S 36°51' E 174°47'0 0.0
2014-Sep-20 01:28S 36°51' E 174°47'0 0.0
2014-Sep-20 00:29S 36°51' E 174°47'0 0.0
2014-Sep-19 23:29S 36°51' E 174°47'0 0.0
2014-Sep-19 22:28S 36°51' E 174°47'0 0.0
2014-Sep-19 21:32S 36°51' E 174°47'0 0.0
2014-Sep-19 20:32S 36°51' E 174°47'0 0.0
2014-Sep-19 19:29S 36°51' E 174°47'0 0.0
2014-Sep-19 18:28S 36°51' E 174°47'0 0.0
2014-Sep-19 17:23S 36°51' E 174°47'0 0.0
2014-Sep-19 16:32S 36°51' E 174°47'0 0.0
2014-Sep-19 15:32S 36°51' E 174°47'0 0.0
2014-Sep-19 14:32S 36°51' E 174°47'1 0.5
2014-Sep-19 13:33S 36°50' E 174°48'6 6.3
2014-Sep-19 12:33S 36°44' E 174°50'10 9.6
2014-Sep-19 11:33S 36°37' E 174°58'8 7.7
2014-Sep-19 10:33S 36°31' E 175°04'1 0.9
2014-Sep-19 09:33S 36°31' E 175°03'1 0.9
2014-Sep-19 08:33S 36°31' E 175°02'6 5.8
2014-Sep-19 07:33S 36°25' E 175°01'1010.1
2014-Sep-19 06:33S 36°15' E 174°59'  
2014-Sep-13 01:33S 39°20' E 147°33'1313.4
2014-Sep-13 00:34S 39°19' E 147°16'1413.9
2014-Sep-12 23:33S 39°18' E 146°58'1414.2
2014-Sep-12 22:33S 39°17' E 146°40'1414.4
2014-Sep-12 21:33S 39°17' E 146°21'1414.0
2014-Sep-12 20:33S 39°12' E 146°04'1414.4
2014-Sep-12 19:33S 39°04' E 145°49'1414.3
2014-Sep-12 18:33S 38°56' E 145°33'2114.2
2014-Sep-12 17:05S 38°45' E 145°11'1014.2
2014-Sep-12 16:24S 38°39' E 145°01'30 0.8
2014-Sep-11 02:33S 38°54' E 145°34'1312.7
2014-Sep-11 01:34S 38°60' E 145°49'1111.3
2014-Sep-11 00:34S 39°05' E 146°02'1212.0
2014-Sep-10 23:34S 39°10' E 146°15'1413.7
2014-Sep-10 22:33S 39°08' E 146°33'1514.9
2014-Sep-10 21:34S 39°03' E 146°51'1414.3
2014-Sep-10 20:34S 38°58' E 147°08'1413.9
2014-Sep-10 19:33S 38°54' E 147°25'5513.7
2014-Sep-10 15:33S 38°36' E 148°32'1514.8
2014-Sep-10 14:34S 38°28' E 148°48'1514.8
2014-Sep-10 13:31S 38°19' E 149°03'  

Dump ship's entire track history